Location: Proctor
(47.8934°N, 114.3048°W)
Time: 17:13:29
(UTC+00:00)

Transit 4A - Pass Details

Date: 14 May 2025
Orbit: 866 x 975 km, 66.8° (Epoch: 13 June)

Event Time Altitude Azimuth Distance (km) Brightness Sun altitude
Rises 10:47:18 0° 326° (NW) 3,607 11.1 -10.5°
Reaches altitude 10° 10:50:03 10° 334° (NNW) 2,642 10.5 -10.2°
Maximum altitude 10:55:47 40° 43° (NE) 1,327 9.5 -9.5°
Drops below altitude 10° 11:01:20 10° 112° (ESE) 2,560 10.6 -8.8°
Sets 11:03:58 0° 120° (ESE) 3,482 11.2 -8.5°
